| time (UTC) | temp F | wind direction | speed MPH | gust MPH | rain 1hr in | rain 24hr in | rain mn in | humidity % | barometer mb |
| 20260504231529 | 85 | 312 | 3.0 | 9.0 | 0.00 | 0.00 | 0.00 | 40 | 1008.4 |
| 20260504230029 | 85 | 308 | 2.0 | 8.0 | 0.00 | 0.00 | 0.00 | 45 | 1008.3 |
| 20260504224527 | 85 | 257 | 1.0 | 10.0 | 0.00 | 0.00 | 0.00 | 46 | 1008.3 |
| 20260504223027 | 85 | 263 | 4.0 | 9.0 | 0.00 | 0.00 | 0.00 | 40 | 1008.4 |
| 20260504221523 | 84 | 295 | 2.0 | 7.0 | 0.00 | 0.00 | 0.00 | 45 | 1008.7 |
| 20260504220021 | 84 | 304 | 0.0 | 4.0 | 0.00 | 0.00 | 0.00 | 43 | 1008.9 |
| 20260504214522 | 84 | 302 | 0.0 | 8.0 | 0.00 | 0.00 | 0.00 | 46 | 1009.0 |
| 20260504213024 | 84 | 309 | 0.0 | 6.0 | 0.00 | 0.00 | 0.00 | 43 | 1009.1 |
| 20260504211529 | 83 | 311 | 0.0 | 8.0 | 0.00 | 0.00 | 0.00 | 48 | 1009.2 |
| 20260504210016 | 83 | 309 | 2.0 | 8.0 | 0.00 | 0.00 | 0.00 | 44 | 1009.3 |
| 20260504204515 | 83 | 307 | 0.0 | 3.0 | 0.00 | 0.00 | 0.00 | 52 | 1009.3 |
| 20260504203010 | 82 | 306 | 0.0 | 1.0 | 0.00 | 0.00 | 0.00 | 49 | 1009.4 |
| 20260504201508 | 82 | 305 | 0.0 | 5.0 | 0.00 | 0.00 | 0.00 | 50 | 1009.4 |
| 20260504200008 | 81 | 305 | 0.0 | 8.0 | 0.00 | 0.00 | 0.00 | 50 | 1009.4 |
| 20260504194506 | 81 | 303 | 1.0 | 6.0 | 0.00 | 0.00 | 0.00 | 49 | 1009.6 |
| 20260504193004 | 81 | 309 | 0.0 | 6.0 | 0.00 | 0.00 | 0.00 | 52 | 1009.6 |
| 20260504191501 | 80 | 236 | 0.0 | 5.0 | 0.00 | 0.00 | 0.00 | 52 | 1009.6 |
| 20260504190108 | 78 | 231 | 1.0 | 6.0 | 0.00 | 0.00 | 0.00 | 54 | 1009.7 |
| 20260504184556 | 78 | 179 | 1.0 | 6.0 | 0.00 | 0.00 | 0.00 | 52 | 1009.7 |
| 20260504183052 | 76 | 94 | 0.0 | 2.0 | 0.00 | 0.00 | 0.00 | 58 | 1010.0 |
| 20260504181559 | 74 | 92 | 0.0 | 2.0 | 0.00 | 0.00 | 0.00 | 62 | 1009.9 |
| 20260504180053 | 74 | 205 | 0.0 | 4.0 | 0.00 | 0.00 | 0.00 | 55 | 1009.9 |
| 20260504174547 | 74 | 209 | 0.0 | 4.0 | 0.00 | 0.00 | 0.00 | 55 | 1009.9 |
| 20260504173052 | 73 | 277 | 1.0 | 6.0 | 0.00 | 0.00 | 0.00 | 61 | 1009.9 |
| 20260504171543 | 73 | 282 | 0.0 | 3.0 | 0.00 | 0.00 | 0.00 | 58 | 1009.9 |
| 20260504081533 | 52 | 304 | 0.0 | 0.0 | 0.00 | 0.00 | 0.00 | 92 | 1008.5 |
| 20260504044518 | 60 | 304 | 0.0 | 0.0 | 0.00 | 0.00 | 0.00 | 77 | 1008.6 |
| 20260504043019 | 61 | 304 | 0.0 | 0.0 | 0.00 | 0.00 | 0.00 | 75 | 1008.5 |
| 20260504041524 | 62 | 304 | 0.0 | 0.0 | 0.00 | 0.00 | 0.00 | 73 | 1008.5 |
| 20260504040013 | 64 | 304 | 0.0 | 1.0 | 0.00 | 0.00 | 0.00 | 70 | 1008.4 |
| 20260504034517 | 66 | 304 | 0.0 | 1.0 | 0.00 | 0.00 | 0.00 | 68 | 1008.2 |
| 20260504033014 | 67 | 304 | 0.0 | 0.0 | 0.00 | 0.00 | 0.00 | 61 | 1008.3 |
| 20260504031510 | 68 | 304 | 0.0 | 0.0 | 0.00 | 0.00 | 0.00 | 59 | 1008.3 |
| 20260504030010 | 70 | 304 | 0.0 | 2.0 | 0.00 | 0.00 | 0.00 | 58 | 1008.2 |
| 20260504024509 | 71 | 304 | 0.0 | 3.0 | 0.00 | 0.00 | 0.00 | 57 | 1008.2 |
| 20260504023008 | 71 | 304 | 0.0 | 6.0 | 0.00 | 0.00 | 0.00 | 55 | 1008.4 |
| 20260504021507 | 73 | 311 | 1.0 | 5.0 | 0.00 | 0.00 | 0.00 | 53 | 1008.3 |
| 20260504020010 | 74 | 304 | 0.0 | 3.0 | 0.00 | 0.00 | 0.00 | 52 | 1008.3 |
| 20260504014509 | 76 | 304 | 0.0 | 3.0 | 0.00 | 0.00 | 0.00 | 50 | 1008.5 |
| 20260504013005 | 78 | 303 | 3.0 | 9.0 | 0.00 | 0.00 | 0.00 | 48 | 1008.7 |
| 20260504011504 | 79 | 311 | 0.0 | 11.0 | 0.00 | 0.00 | 0.00 | 47 | 1008.7 |
| 20260504010002 | 80 | 312 | 2.0 | 11.0 | 0.00 | 0.00 | 0.00 | 47 | 1008.8 |
| 20260504004600 | 81 | 304 | 3.0 | 9.0 | 0.00 | 0.00 | 0.00 | 46 | 1008.9 |
| 20260504003058 | 80 | 311 | 1.0 | 9.0 | 0.00 | 0.00 | 0.00 | 48 | 1009.0 |
| 20260504001559 | 80 | 302 | 2.0 | 10.0 | 0.00 | 0.00 | 0.00 | 45 | 1009.1 |
| 20260504000056 | 81 | 292 | 4.0 | 13.0 | 0.00 | 0.00 | 0.00 | 46 | 1009.3 |
| 20260503234623 | 81 | 305 | 1.0 | 9.0 | 0.00 | 0.00 | 0.00 | 50 | 1009.3 |
| 20260503233053 | 81 | 302 | 3.0 | 10.0 | 0.00 | 0.00 | 0.00 | 50 | 1009.4 |